KC5AYO Weather Reports


Display with metric or nautical units.
time (UTC)temp
F
wind
direction
speed
MPH
gust
MPH
rain 1hr
in
rain 24hr
in
rain mn
in
humidity
%
barometer
mb
20260906212019 81 42 0.0 3.0 0.00 0.00 0.00 52 1013.7
20260906211517 81 19 0.0 4.0 0.00 0.00 0.00 53 1013.8
20260906211017 81 73 1.0 4.0 0.00 0.00 0.00 53 1013.7
20260906210517 81 344 0.0 3.0 0.00 0.00 0.00 53 1013.7
20260906210017 81 9 0.0 3.0 0.00 0.00 0.00 54 1013.8
20260906205517 81 360 0.0 3.0 0.00 0.00 0.00 50 1013.7
20260906205017 81 355 0.0 3.0 0.00 0.00 0.00 53 1013.7
20260906204517 81 360 0.0 3.0 0.00 0.00 0.00 53 1013.7
20260906204016 81 346 0.0 3.0 0.00 0.00 0.00 55 1013.8
20260906203516 81 9 0.0 4.0 0.00 0.00 0.00 53 1013.9
20260906203016 81 9 0.0 5.0 0.00 0.00 0.00 51 1013.8
20260906202515 81 19 0.0 5.0 0.00 0.00 0.00 55 1013.8
20260906202016 81 355 0.0 2.0 0.00 0.00 0.00 53 1013.9
20260906201515 81 346 0.0 2.0 0.00 0.00 0.00 56 1013.9
20260906201014 81 349 0.0 2.0 0.00 0.00 0.00 57 1013.9
20260906200515 81 336 0.0 5.0 0.00 0.00 0.00 53 1013.7
20260906200015 82 355 0.0 5.0 0.00 0.00 0.00 55 1013.8
20260906195514 82 9 0.0 4.0 0.00 0.00 0.00 54 1013.8
20260906195015 82 96 2.0 4.0 0.00 0.00 0.00 53 1013.9
20260906194518 82 345 0.0 6.0 0.00 0.00 0.00 54 1014.0
20260906194018 82 90 0.0 6.0 0.00 0.00 0.00 54 1014.1
20260906193514 82 67 0.0 4.0 0.00 0.00 0.00 54 1014.1
20260906193014 82 47 1.0 7.0 0.00 0.00 0.00 54 1014.0
20260906192514 82 82 1.0 7.0 0.00 0.00 0.00 54 1014.1
20260906192012 82 23 0.0 9.0 0.00 0.00 0.00 54 1014.2
20260906191512 82 73 1.0 7.0 0.00 0.00 0.00 53 1014.1
20260906191011 81 360 0.0 5.0 0.00 0.00 0.00 52 1014.1
20260906190511 82 20 0.0 5.0 0.00 0.00 0.00 53 1014.1
20260906190012 81 344 1.0 4.0 0.00 0.00 0.00 54 1014.1
20260906185514 82 12 1.0 4.0 0.00 0.00 0.00 54 1014.2
20260906185010 81 83 1.0 4.0 0.00 0.00 0.00 54 1014.2
20260906184509 81 355 0.0 3.0 0.00 0.00 0.00 54 1014.3
20260906184009 81 328 0.0 3.0 0.00 0.00 0.00 54 1014.3
20260906183509 81 80 0.0 3.0 0.00 0.00 0.00 54 1014.3
20260906183014 81 347 0.0 4.0 0.00 0.00 0.00 54 1014.4
20260906182508 81 10 1.0 4.0 0.00 0.00 0.00 56 1014.4
20260906182012 81 85 1.0 5.0 0.00 0.00 0.00 57 1014.3
20260906181525 81 65 2.0 5.0 0.00 0.00 0.00 55 1014.3
20260906181007 81 81 0.0 4.0 0.00 0.00 0.00 58 1014.4
20260906180507 81 355 0.0 4.0 0.00 0.00 0.00 57 1014.3
20260906180006 81 126 0.0 4.0 0.00 0.00 0.00 56 1014.3
20260906175507 81 69 0.0 6.0 0.00 0.00 0.00 59 1014.2
20260906175004 80 86 1.0 6.0 0.00 0.00 0.00 59 1014.2
20260906174504 80 13 1.0 3.0 0.00 0.00 0.00 59 1014.2
20260906174003 80 346 0.0 3.0 0.00 0.00 0.00 58 1014.3
20260906173502 80 355 0.0 5.0 0.00 0.00 0.00 59 1014.4
20260906173002 80 5 1.0 5.0 0.00 0.00 0.00 58 1014.4
20260906172501 80 80 0.0 6.0 0.00 0.00 0.00 59 1014.5
20260906172100 79 9 0.0 6.0 0.00 0.00 0.00 59 1014.5
20260906171559 79 95 1.0 6.0 0.00 0.00 0.00 59 1014.6
20260906171057 79 117 2.0 6.0 0.00 0.00 0.00 61 1014.6
20260906170557 79 79 2.0 5.0 0.00 0.00 0.00 61 1014.6
20260906170056 79 107 1.0 6.0 0.00 0.00 0.00 59 1014.6
20260906165556 79 9 1.0 3.0 0.00 0.00 0.00 63 1014.6
20260906165054 79 41 0.0 6.0 0.00 0.00 0.00 63 1014.7
20260906164556 78 64 2.0 6.0 0.00 0.00 0.00 61 1014.7
20260906164052 78 84 1.0 6.0 0.00 0.00 0.00 64 1014.8
20260906163551 78 360 1.0 4.0 0.00 0.00 0.00 64 1015.0
20260906163058 78 346 0.0 6.0 0.00 0.00 0.00 63 1015.0
20260906162551 78 355 1.0 6.0 0.00 0.00 0.00 65 1015.1
20260906162054 77 117 2.0 4.0 0.00 0.00 0.00 63 1015.2
20260906161551 77 49 0.0 3.0 0.00 0.00 0.00 63 1015.2
20260906161047 77 351 0.0 3.0 0.00 0.00 0.00 66 1015.2
20260906160546 77 355 0.0 3.0 0.00 0.00 0.00 65 1015.2
20260906160046 76 346 0.0 2.0 0.00 0.00 0.00 67 1015.2
20260906155546 76 9 0.0 6.0 0.00 0.00 0.00 64 1015.3
20260906155047 76 21 2.0 6.0 0.00 0.00 0.00 64 1015.2
20260906154549 76 78 1.0 6.0 0.00 0.00 0.00 66 1015.1
20260906154044 76 345 0.0 5.0 0.00 0.00 0.00 65 1015.1
20260906153543 76 81 2.0 5.0 0.00 0.00 0.00 67 1015.3
20260906153043 75 71 0.0 3.0 0.00 0.00 0.00 68 1015.4
20260906152544 75 75 0.0 3.0 0.00 0.00 0.00 68 1015.2
20260906152046 75 74 0.0 2.0 0.00 0.00 0.00 68 1015.4
20260906151541 75 72 0.0 3.0 0.00 0.00 0.00 68 1015.3
20260906151039 74 40 0.0 3.0 0.00 0.00 0.00 67 1015.4
20260906150542 74 88 1.0 3.0 0.00 0.00 0.00 68 1015.3
20260906150038 74 355 0.0 4.0 0.00 0.00 0.00 68 1015.2
20260906145538 74 84 1.0 4.0 0.00 0.00 0.00 70 1015.1
20260906145040 74 61 1.0 5.0 0.00 0.00 0.00 71 1015.2
20260906144537 74 90 0.0 5.0 0.00 0.00 0.00 70 1015.1
20260906144039 73 97 2.0 4.0 0.00 0.00 0.00 70 1015.1
20260906143536 73 80 1.0 3.0 0.00 0.00 0.00 71 1015.2
20260906143040 73 346 1.0 5.0 0.00 0.00 0.00 72 1015.0
20260906142535 73 80 0.0 5.0 0.00 0.00 0.00 74 1015.0
20260906142035 72 86 1.0 3.0 0.00 0.00 0.00 73 1015.0
20260906141533 72 82 0.0 3.0 0.00 0.00 0.00 75 1015.1
20260906141033 72 355 0.0 2.0 0.00 0.00 0.00 76 1015.1
20260906140532 72 355 0.0 2.0 0.00 0.00 0.00 74 1015.1
20260906140030 71 23 0.0 3.0 0.00 0.00 0.00 76 1014.9
20260906135530 71 98 1.0 3.0 0.00 0.00 0.00 74 1014.8
20260906135028 71 346 0.0 3.0 0.00 0.00 0.00 77 1014.8
20260906134528 71 355 0.0 3.0 0.00 0.00 0.00 78 1014.8
20260906134027 71 67 0.0 4.0 0.00 0.00 0.00 78 1014.8
20260906133528 71 102 1.0 4.0 0.00 0.00 0.00 77 1014.9
20260906133035 71 346 0.0 3.0 0.00 0.00 0.00 77 1014.7
20260906132525 71 5 0.0 2.0 0.00 0.00 0.00 81 1014.6
20260906132024 70 44 0.0 3.0 0.00 0.00 0.00 79 1014.6
20260906131523 70 80 1.0 3.0 0.00 0.00 0.00 80 1014.5
20260906131025 70 355 0.0 2.0 0.00 0.00 0.00 81 1014.6
20260906130524 70 24 0.0 2.0 0.00 0.00 0.00 80 1014.5
20260906130026 70 81 0.0 2.0 0.00 0.00 0.00 81 1014.5
20260906125521 70 78 0.0 2.0 0.00 0.00 0.00 81 1014.5
20260906125022 69 88 0.0 2.0 0.00 0.00 0.00 81 1014.5
20260906124520 69 84 0.0 2.0 0.00 0.00 0.00 82 1014.5
20260906124019 70 56 0.0 2.0 0.00 0.00 0.00 83 1014.4
20260906123519 69 360 0.0 2.0 0.00 0.00 0.00 84 1014.3
20260906123026 69 73 0.0 2.0 0.00 0.00 0.00 85 1014.2
20260906122518 69 355 0.0 2.0 0.00 0.00 0.00 85 1014.2
20260906122020 69 355 0.0 2.0 0.00 0.00 0.00 85 1013.9
20260906121516 69 346 0.0 2.0 0.00 0.00 0.00 85 1013.9
20260906121015 69 351 0.0 2.0 0.00 0.00 0.00 87 1013.8
20260906120516 69 348 0.0 2.0 0.00 0.00 0.00 86 1013.7
20260906120014 69 355 0.0 2.0 0.00 0.00 0.00 86 1013.8
20260906115514 69 350 0.0 2.0 0.00 0.00 0.00 86 1013.7
20260906115012 69 351 0.0 2.0 0.00 0.00 0.00 86 1013.7
20260906114532 69 355 0.0 2.0 0.00 0.00 0.00 85 1013.8
20260906114011 69 346 0.0 2.0 0.00 0.00 0.00 86 1013.7
20260906113510 69 345 0.0 2.0 0.00 0.00 0.00 86 1013.6
20260906113010 69 346 0.0 2.0 0.00 0.00 0.00 86 1013.5
20260906112510 69 355 0.0 2.0 0.00 0.00 0.00 86 1013.4
20260906112008 70 10 0.0 2.0 0.00 0.00 0.00 86 1013.2
20260906111517 70 19 0.0 3.0 0.00 0.00 0.00 87 1013.1
20260906111007 70 355 0.0 3.0 0.00 0.00 0.00 86 1013.2
20260906110507 70 22 0.0 2.0 0.00 0.00 0.00 88 1013.2
20260906110007 70 44 0.0 2.0 0.00 0.00 0.00 87 1013.1
20260906105506 71 14 0.0 2.0 0.00 0.00 0.00 89 1013.1
20260906105003 71 355 0.0 2.0 0.00 0.00 0.00 89 1013.1
20260906104502 71 355 0.0 2.0 0.00 0.00 0.00 89 1013.1
20260906104002 71 346 0.0 2.0 0.00 0.00 0.00 90 1013.1
20260906103501 71 9 0.0 2.0 0.00 0.00 0.00 90 1013.0
20260906103001 71 360 0.0 2.0 0.00 0.00 0.00 88 1012.9
20260906102601 71 345 0.0 2.0 0.00 0.00 0.00 88 1012.7
20260906102101 71 5 0.0 2.0 0.00 0.00 0.00 88 1012.7
20260906101603 71 360 0.0 2.0 0.00 0.00 0.00 87 1012.7
20260906101058 71 348 0.0 2.0 0.00 0.00 0.00 88 1012.7
20260906100558 71 351 0.0 2.0 0.00 0.00 0.00 88 1012.5
20260906100058 71 331 0.0 2.0 0.00 0.00 0.00 88 1012.6
20260906095556 71 355 0.0 2.0 0.00 0.00 0.00 88 1012.5
20260906095056 71 9 0.0 2.0 0.00 0.00 0.00 87 1012.4
20260906094556 72 351 0.0 2.0 0.00 0.00 0.00 89 1012.3
20260906094055 72 355 0.0 2.0 0.00 0.00 0.00 88 1012.3
20260906093555 72 355 0.0 2.0 0.00 0.00 0.00 88 1012.3
20260906093054 72 339 0.0 2.0 0.00 0.00 0.00 89 1012.3
20260906092553 73 346 0.0 2.0 0.00 0.00 0.00 88 1012.3
20260906092052 73 355 0.0 2.0 0.00 0.00 0.00 88 1012.2
20260906091551 73 19 0.0 2.0 0.00 0.00 0.00 89 1012.2
20260906091050 74 355 0.0 2.0 0.00 0.00 0.00 88 1012.1
20260906090551 74 38 0.0 3.0 0.00 0.00 0.00 88 1012.1
20260906090049 74 351 0.0 3.0 0.00 0.00 0.00 89 1012.2
20260906085551 74 97 1.0 5.0 0.00 0.00 0.00 88 1012.1
20260906085048 74 88 1.0 5.0 0.00 0.00 0.00 89 1012.1
20260906084549 74 351 0.0 3.0 0.00 0.00 0.00 90 1012.0
20260906084049 74 360 0.0 2.0 0.00 0.00 0.00 91 1012.0
20260906083548 74 71 0.0 2.0 0.00 0.00 0.00 90 1012.0
20260906083048 74 342 0.0 2.0 0.00 0.00 0.00 90 1012.0
20260906082548 74 38 0.0 2.0 0.00 0.00 0.00 91 1012.0
20260906082048 74 49 0.0 2.0 0.00 0.00 0.00 91 1011.8
20260906081552 74 338 0.0 1.0 0.00 0.00 0.00 91 1011.9
20260906081047 74 9 0.0 2.0 0.00 0.00 0.00 91 1011.9
20260906080549 74 355 0.0 2.0 0.00 0.00 0.00 91 1012.0
20260906080046 74 75 0.0 1.0 0.00 0.00 0.00 91 1011.9
20260906075546 74 355 0.0 0.0 0.00 0.00 0.00 91 1011.9
20260906075046 74 76 0.0 0.0 0.00 0.00 0.00 92 1011.9
20260906074548 74 5 0.0 2.0 0.00 0.00 0.00 92 1012.0
20260906074046 74 340 0.0 2.0 0.00 0.00 0.00 91 1011.9
20260906073546 74 348 0.0 2.0 0.00 0.00 0.00 92 1011.9
20260906073047 74 360 0.0 2.0 0.00 0.00 0.00 91 1012.0
20260906072549 74 5 0.0 2.0 0.00 0.00 0.00 92 1011.9
20260906072046 74 360 0.0 2.0 0.00 0.00 0.00 92 1012.0
20260906071545 74 9 0.0 2.0 0.00 0.00 0.00 91 1011.9
20260906071045 74 360 0.0 0.0 0.00 0.00 0.00 92 1011.9
20260906070545 74 22 0.0 0.0 0.00 0.00 0.00 92 1012.0
20260906070044 74 10 0.0 0.0 0.00 0.00 0.00 92 1011.9
20260906065548 74 9 0.0 0.0 0.00 0.00 0.00 92 1011.9
20260906065044 74 9 0.0 0.0 0.00 0.00 0.00 91 1011.9
20260906064543 74 9 0.0 0.0 0.00 0.00 0.00 91 1012.0
20260906064044 74 9 0.0 0.0 0.00 0.00 0.00 91 1012.0
20260906063547 74 10 0.0 0.0 0.00 0.00 0.00 91 1011.9
20260906063043 74 10 0.0 0.0 0.00 0.00 0.00 91 1012.0
20260906062544 74 23 0.0 2.0 0.00 0.00 0.00 92 1012.1
20260906062044 74 9 0.0 2.0 0.00 0.00 0.00 91 1012.1
20260906061542 74 22 0.0 1.0 0.00 0.00 0.00 91 1012.1
20260906061041 74 19 0.0 2.0 0.00 0.00 0.00 91 1012.1
20260906060541 74 30 0.0 2.0 0.00 0.00 0.00 91 1012.1
20260906055541 74 30 0.0 2.0 0.00 0.00 0.00 90 1012.1
20260906055041 74 355 0.0 2.0 0.00 0.00 0.00 90 1012.1
20260906054539 74 355 0.0 2.0 0.00 0.00 0.00 89 1012.0
20260906054040 75 355 0.0 0.0 0.00 0.00 0.00 89 1012.0
20260906053542 75 355 0.0 2.0 0.00 0.00 0.00 89 1012.0
20260906053039 75 355 0.0 2.0 0.00 0.00 0.00 89 1012.0
20260906052537 75 355 0.0 2.0 0.00 0.00 0.00 88 1011.9
20260906052037 75 19 0.0 2.0 0.00 0.00 0.00 88 1011.9
20260906051536 75 9 0.0 1.0 0.00 0.00 0.00 87 1011.9
20260906051036 75 28 0.0 1.0 0.00 0.00 0.00 87 1011.9
20260906050534 75 9 0.0 1.0 0.00 0.00 0.00 87 1011.8
20260906050033 75 9 0.0 0.0 0.00 0.00 0.00 87 1011.8
20260906045534 75 9 0.0 2.0 0.00 0.00 0.00 86 1011.7
20260906045031 76 9 0.0 2.0 0.00 0.00 0.00 86 1011.7
20260906044531 76 9 0.0 2.0 0.00 0.00 0.00 86 1011.7
20260906044031 76 5 0.0 2.0 0.00 0.00 0.00 86 1011.6
20260906043529 76 5 0.0 2.0 0.00 0.00 0.00 85 1011.6
20260906043029 76 5 0.0 1.0 0.00 0.00 0.00 85 1011.6
20260906042528 76 5 0.0 1.0 0.00 0.00 0.00 85 1011.4
20260906042027 76 5 0.0 0.0 0.00 0.00 0.00 83 1011.4
20260906041530 77 5 0.0 0.0 0.00 0.00 0.00 84 1011.3
20260906041024 77 5 0.0 0.0 0.00 0.00 0.00 84 1011.3
20260906040523 77 5 0.0 0.0 0.00 0.00 0.00 83 1011.1
20260906040032 77 10 0.0 0.0 0.00 0.00 0.00 83 1011.1
20260906035528 77 11 0.0 0.0 0.00 0.00 0.00 83 1011.1
20260906035022 77 9 0.0 0.0 0.00 0.00 0.00 82 1011.1
20260906034528 78 29 0.0 0.0 0.00 0.00 0.00 82 1011.2
20260906034022 78 5 0.0 0.0 0.00 0.00 0.00 82 1011.2
20260906033522 78 355 0.0 0.0 0.00 0.00 0.00 82 1011.2
20260906033022 78 9 0.0 0.0 0.00 0.00 0.00 81 1011.2
20260906032522 78 5 0.0 0.0 0.00 0.00 0.00 80 1011.2
20260906032022 78 9 0.0 0.0 0.00 0.00 0.00 82 1011.0
20260906031534 78 37 0.0 0.0 0.00 0.00 0.00 80 1011.2
20260906031022 79 15 0.0 0.0 0.00 0.00 0.00 79 1011.3
20260906030521 79 9 0.0 0.0 0.00 0.00 0.00 81 1011.2
20260906030021 79 10 0.0 0.0 0.00 0.00 0.00 79 1011.3
20260906025526 79 355 0.0 0.0 0.00 0.00 0.00 79 1011.2
20260906025021 79 9 0.0 0.0 0.00 0.00 0.00 79 1011.1
20260906024520 79 9 0.0 0.0 0.00 0.00 0.00 79 1011.1
20260906024021 80 360 0.0 2.0 0.00 0.00 0.00 79 1011.1
20260906023521 80 355 0.0 2.0 0.00 0.00 0.00 78 1011.1
20260906023020 80 13 0.0 2.0 0.00 0.00 0.00 76 1011.2
20260906022520 81 348 0.0 2.0 0.00 0.00 0.00 76 1011.1
20260906022020 81 355 0.0 2.0 0.00 0.00 0.00 75 1011.0
20260906021522 81 29 0.0 3.0 0.00 0.00 0.00 75 1010.9
20260906021024 81 74 0.0 3.0 0.00 0.00 0.00 77 1010.9
20260906020520 82 86 0.0 2.0 0.00 0.00 0.00 76 1010.8
20260906020022 82 84 0.0 2.0 0.00 0.00 0.00 76 1010.8
20260906015519 82 31 0.0 2.0 0.00 0.00 0.00 76 1010.8
20260906015019 82 61 0.0 2.0 0.00 0.00 0.00 75 1010.7
20260906014524 82 53 0.0 2.0 0.00 0.00 0.00 74 1010.6
20260906014021 83 351 0.0 2.0 0.00 0.00 0.00 75 1010.5
20260906013519 83 12 0.0 2.0 0.00 0.00 0.00 75 1010.4
20260906013019 83 24 0.0 2.0 0.00 0.00 0.00 77 1010.4
20260906012520 83 360 0.0 2.0 0.00 0.00 0.00 80 1010.3
20260906012022 83 66 0.0 0.0 0.00 0.00 0.00 81 1010.2
20260906011518 83 49 0.0 0.0 0.00 0.00 0.00 81 1010.0
20260906011017 84 342 0.0 0.0 0.00 0.00 0.00 81 1009.9
20260906010517 84 342 0.0 0.0 0.00 0.00 0.00 80 1009.7
20260906010017 84 342 0.0 0.0 0.00 0.00 0.00 80 1009.5
20260906005517 84 342 0.0 0.0 0.00 0.00 0.00 79 1009.6
20260906005017 84 342 0.0 0.0 0.00 0.00 0.00 80 1009.4
20260906004517 84 342 0.0 0.0 0.00 0.00 0.00 79 1009.4
20260906004017 85 342 0.0 0.0 0.00 0.00 0.00 78 1009.4
20260906003517 85 342 0.0 0.0 0.00 0.00 0.00 78 1009.4
20260906003017 85 342 0.0 0.0 0.00 0.00 0.00 79 1009.3
20260906002516 85 342 0.0 0.0 0.00 0.00 0.00 77 1009.3
20260906002016 85 342 0.0 0.0 0.00 0.00 0.00 78 1009.3
20260906001517 85 342 0.0 0.0 0.00 0.00 0.00 78 1009.3
20260906001020 85 342 0.0 0.0 0.00 0.00 0.00 77 1009.3
20260906000515 86 342 0.0 0.0 0.00 0.00 0.00 78 1009.2
20260906000016 86 342 0.0 0.0 0.00 0.00 0.00 77 1009.3
20260905235515 86 342 0.0 0.0 0.00 0.00 0.00 78 1009.3
20260905235019 87 342 0.0 0.0 0.00 0.00 0.00 74 1009.3
20260905234515 87 342 0.0 0.0 0.00 0.00 0.00 74 1009.2
20260905234015 87 342 0.0 0.0 0.00 0.00 0.00 74 1009.4
20260905233515 88 342 0.0 0.0 0.00 0.00 0.00 72 1009.4
20260905233017 88 342 0.0 0.0 0.00 0.00 0.00 71 1009.5
20260905232514 88 344 0.0 0.0 0.00 0.00 0.00 72 1009.5
20260905232015 88 344 0.0 0.0 0.00 0.00 0.00 72 1009.8
20260905231517 89 344 0.0 0.0 0.00 0.00 0.00 72 1009.8
20260905231014 89 340 0.0 0.0 0.00 0.00 0.00 68 1009.8
20260905230513 89 340 0.0 0.0 0.00 0.00 0.00 68 1009.8
20260905230013 89 344 0.0 0.0 0.00 0.00 0.00 67 1009.5
20260905225514 88 344 0.0 0.0 0.00 0.00 0.00 67 1009.4
20260905225013 88 345 0.0 0.0 0.00 0.00 0.00 67 1009.4
20260905224514 89 345 0.0 0.0 0.00 0.00 0.00 67 1009.4
20260905224018 89 345 0.0 0.0 0.00 0.00 0.00 67 1009.4
20260905223512 89 345 0.0 0.0 0.00 0.00 0.00 65 1009.1
20260905223013 89 345 0.0 0.0 0.00 0.00 0.00 66 1009.0
20260905222513 89 345 0.0 0.0 0.00 0.00 0.00 66 1009.1
20260905222012 89 345 0.0 0.0 0.00 0.00 0.00 66 1009.2
20260905221512 89 345 0.0 0.0 0.00 0.00 0.00 67 1009.2
20260905221011 89 345 0.0 0.0 0.00 0.00 0.00 66 1009.0
20260905220513 89 344 0.0 0.0 0.00 0.00 0.00 65 1009.2
20260905220013 89 344 0.0 0.0 0.00 0.00 0.00 63 1009.1
20260905215511 90 321 0.0 0.0 0.00 0.00 0.00 63 1009.2
20260905215009 90 321 0.0 0.0 0.00 0.00 0.00 64 1009.4
20260905214509 90 16 0.0 0.0 0.00 0.00 0.00 61 1009.4
20260905214009 91 9 0.0 0.0 0.00 0.00 0.00 61 1009.3
20260905213509 91 350 0.0 1.0 0.00 0.00 0.00 61 1009.3
20260905213010 90 350 0.0 2.0 0.00 0.00 0.00 60 1009.4
20260905212511 91 21 0.0 2.0 0.00 0.00 0.00 60 1009.3